• Join FlightAware (Why Join?)
  • Login
  • US Flag 
01:58PM EDT


 

Airport Tracker/Info


-or-


 

Live Flight TrackerFlight Track Log ✈ N10EH ✈ 11-Feb-2014 ✈ KSLN - KOPF

Flight Track Log - Related Links

Times and Time Zones

All times are in EST time to prevent confusion due to time zone crossing. See the N10EH flight status page for this flight to view local times or setup timezone preferences in your user account.

Time Position Orientation Groundspeed Altitude Reporting Facility
EST Latitude Longitude Course Direction KTS MPH feet Rate Location/Type
02:29PM 38.7681 -97.6461 121° Southeast 225 259 2,600  Level Kansas City Center
02:30PM 38.7203 -97.5961 141° Southeast 234 269 4,600 1,980 Climbing Kansas City Center
02:31PM 38.6861 -97.5050 116° Southeast 269 310 6,700 2,340 Climbing Kansas City Center
02:32PM 38.6367 -97.4178 126° Southeast 289 333 9,500 2,460 Climbing Kansas City Center
02:33PM 38.5869 -97.3228 124° Southeast 329 379 11,800 2,700 Climbing Kansas City Center
02:34PM 38.3784 -96.8702 121° Southeast  Level FlightAware Approximate
02:34PM 38.5275 -97.2056 123° Southeast 375 432 15,100  Level Kansas City Center
02:35PM 38.4653 -97.0839 123° Southeast 393 452 18,200 3,000 Climbing Kansas City Center
02:36PM 38.3983 -96.9550 124° Southeast 416 479 21,300 2,280 Climbing Kansas City Center
02:37PM 38.3269 -96.8175 123° Southeast 444 511 23,000 1,920 Climbing Kansas City Center
02:38PM 38.2531 -96.6764 124° Southeast 458 527 25,300 2,340 Climbing Kansas City Center
02:39PM 38.1842 -96.5439 123° Southeast 465 535 27,900 2,340 Climbing Kansas City Center
02:40PM 38.1067 -96.3964 124° Southeast 484 557 30,200 2,220 Climbing Kansas City Center
02:41PM 38.0250 -96.2422 124° Southeast 503 579 32,600 2,400 Climbing Kansas City Center
02:42PM 37.9553 -96.1103 124° Southeast 503 579 35,200 2,160 Climbing Kansas City Center
02:43PM 37.8725 -95.9539 124° Southeast 493 567 37,100 1,920 Climbing Kansas City Center
02:44PM 37.7939 -95.8044 124° Southeast 505 581 39,200 1,860 Climbing Kansas City Center
02:45PM 37.7186 -95.6619 124° Southeast 492 566 41,000 840 Climbing Kansas City Center
02:46PM 37.6414 -95.5225 125° Southeast 484 557 41,000  Level Kansas City Center
02:47PM 37.5631 -95.3794 125° Southeast 489 563 41,000  Level Kansas City Center
02:48PM 37.4706 -95.2078 124° Southeast 491 565 41,000  Level Kansas City Center
02:49PM 37.3928 -95.0656 125° Southeast 491 565 41,000  Level Kansas City Center
02:50PM 37.3128 -94.9189 124° Southeast 497 572 41,000  Level Kansas City Center
02:51PM 37.2325 -94.7728 125° Southeast 503 579 41,000  Level Kansas City Center
02:52PM 37.1531 -94.6275 124° Southeast 503 579 41,000  Level Kansas City Center
02:53PM 37.0733 -94.4839 125° Southeast 501 577 41,000  Level Kansas City Center
02:54PM 36.9933 -94.3397 125° Southeast 501 577 41,000  Level Kansas City Center
02:55PM 36.9128 -94.1961 125° Southeast 501 577 41,000  Level Kansas City Center
02:56PM 36.8294 -94.0519 126° Southeast 505 581 41,000  Level Kansas City Center
02:57PM 36.7333 -93.8811 125° Southeast 501 577 41,000  Level Kansas City Center
02:58PM 36.6528 -93.7389 125° Southeast 498 573 41,000  Level Kansas City Center
02:59PM 36.5717 -93.5947 125° Southeast 504 580 41,000  Level Kansas City Center
03:00PM 36.4914 -93.4531 125° Southeast 503 579 41,000  Level Kansas City Center
03:01PM 36.4103 -93.3144 126° Southeast 499 574 41,000  Level Kansas City Center
03:02PM 36.3456 -93.2019 126° Southeast 500 575 41,000  Level Memphis Center
03:03PM 36.2639 -93.0606 126° Southeast 501 577 41,000  Level Memphis Center
03:04PM 36.1817 -92.9214 126° Southeast 500 575 41,000  Level Memphis Center
03:05PM 36.0811 -92.7467 125° Southeast 511 588 41,000  Level Memphis Center
03:06PM 35.9972 -92.6042 126° Southeast 512 589 41,000  Level Memphis Center
03:07PM 35.9136 -92.4611 126° Southeast 511 588 41,000  Level Memphis Center
03:08PM 35.8281 -92.3194 127° Southeast 512 589 41,000  Level Memphis Center
03:10PM 35.7447 -92.1778 126° Southeast 511 588 41,000  Level Memphis Center
03:11PM 35.6597 -92.0353 126° Southeast 513 590 41,000  Level Memphis Center
03:12PM 35.5756 -91.8947 126° Southeast 511 588 41,000  Level Memphis Center
03:13PM 35.4906 -91.7517 126° Southeast 515 593 41,000  Level Memphis Center
03:14PM 35.3872 -91.5817 127° Southeast 517 595 41,000  Level Memphis Center
03:15PM 35.3017 -91.4400 126° Southeast 517 595 41,000  Level Memphis Center
03:16PM 35.2156 -91.3000 127° Southeast 516 594 41,000  Level Memphis Center
03:17PM 35.1303 -91.1597 127° Southeast 515 593 41,000  Level Memphis Center
03:18PM 35.0425 -91.0181 127° Southeast 515 593 41,000  Level Memphis Center
03:19PM 34.9558 -90.8797 127° Southeast 515 593 41,000  Level Memphis Center
03:20PM 34.8686 -90.7358 126° Southeast 515 593 41,000  Level Memphis Center
03:21PM 34.7817 -90.5978 127° Southeast 515 593 41,000  Level Memphis Center
03:22PM 34.6781 -90.4319 127° Southeast 515 593 41,000  Level Memphis Center
03:23PM 34.5925 -90.2958 127° Southeast 512 589 41,000  Level Memphis Center
03:24PM 34.5053 -90.1567 127° Southeast 515 593 41,000  Level Memphis Center
03:25PM 34.4189 -90.0203 127° Southeast 514 592 41,000  Level Memphis Center
03:26PM 34.3319 -89.8819 127° Southeast 515 593 41,000  Level Memphis Center
03:27PM 34.2444 -89.7453 128° Southeast 515 593 41,000  Level Memphis Center
03:28PM 34.1581 -89.6103 128° Southeast 511 588 41,000  Level Memphis Center
03:29PM 34.0536 -89.4481 128° Southeast 510 587 41,000  Level Memphis Center
03:30PM 33.9664 -89.3117 128° Southeast 512 589 41,000  Level Memphis Center
03:31PM 33.8792 -89.1761 128° Southeast 512 589 41,000  Level Memphis Center
03:32PM 33.7894 -89.0397 128° Southeast 516 594 41,000  Level Memphis Center
03:33PM 33.7014 -88.9036 128° Southeast 517 595 41,000  Level Memphis Center
03:34PM 33.6108 -88.7650 128° Southeast 518 596 41,000  Level Memphis Center
03:35PM 33.5217 -88.6294 128° Southeast 521 600 41,000  Level Memphis Center
03:36PM 33.4139 -88.4667 128° Southeast 521 600 41,000  Level Memphis Center
03:37PM 33.3244 -88.3306 128° Southeast 521 600 41,000  Level Memphis Center
03:38PM 33.2347 -88.1958 129° Southeast 522 601 41,000  Level Memphis Center
03:39PM 33.1442 -88.0611 129° Southeast 523 602 41,000  Level Memphis Center
03:40PM 33.0536 -87.9253 128° Southeast 524 603 41,000  Level Memphis Center
03:41PM 32.9628 -87.7906 129° Southeast 524 603 41,000  Level Memphis Center
03:42PM 32.8539 -87.6272 128° Southeast 525 604 41,000  Level Memphis Center
03:44PM 32.7622 -87.4939 129° Southeast 525 604 41,000  Level Memphis Center
03:45PM 32.6647 -87.3428 127° Southeast 529 609 41,000  Level Atlanta Center
03:46PM 32.5678 -87.2108 131° Southeast 529 609 41,000  Level Atlanta Center
03:47PM 32.4775 -87.0747 128° Southeast 529 609 41,000  Level Atlanta Center
03:48PM 32.3825 -86.9386 130° Southeast 529 609 41,000  Level Atlanta Center
03:49PM 32.2917 -86.8081 129° Southeast 528 608 41,000  Level Atlanta Center
03:50PM 32.1236 -86.5719 130° Southeast 524 603 41,000  Level Jacksonville Center
03:51PM 32.0314 -86.4383 129° Southeast 519 597 41,000  Level Jacksonville Center
03:52PM 31.9311 -86.2903 129° Southeast 519 597 41,000  Level Jacksonville Center
03:53PM 31.8364 -86.1594 130° Southeast 519 597 41,000  Level Jacksonville Center
03:54PM 31.7456 -86.0294 129° Southeast 519 597 41,000  Level Jacksonville Center
03:55PM 31.6528 -85.8969 129° Southeast 519 597 41,000  Level Jacksonville Center
03:56PM 31.5597 -85.7669 130° Southeast 519 597 41,000  Level Jacksonville Center
03:57PM 31.4686 -85.6400 130° Southeast 519 597 41,000  Level Jacksonville Center
03:58PM 31.3753 -85.5133 131° Southeast 519 597 41,000 -60 Level Jacksonville Center
03:59PM 31.2983 -85.3944 127° Southeast 519 597 40,900 -60 Descending Jacksonville Center
04:00PM 31.2069 -85.2706 131° Southeast 514 592 40,900  Level Jacksonville Center
04:01PM 31.1153 -85.1419 130° Southeast 514 592 40,900  Level Jacksonville Center
04:02PM 31.0233 -85.0139 130° Southeast 514 592 40,900  Level Jacksonville Center
04:03PM 30.9294 -84.8881 131° Southeast 514 592 40,900  Level Jacksonville Center
04:04PM 30.8250 -84.7481 131° Southeast 514 592 41,000  Climbing Jacksonville Center
04:05PM 30.7453 -84.6328 129° Southeast 519 597 40,900 -60 Descending Jacksonville Center
04:06PM 30.6508 -84.5081 131° Southeast 519 597 40,900  Level Jacksonville Center
04:07PM 30.5667 -84.3956 131° Southeast 514 592 41,000  Climbing Jacksonville Center
04:08PM 30.4444 -84.2997 146° Southeast 487 560 40,900 -60 Descending Jacksonville Center
04:09PM 30.3264 -84.2258 152° Southeast 487 560 40,900  Level Jacksonville Center
04:10PM 30.1997 -84.1422 150° Southeast 477 549 40,900  Level Jacksonville Center
04:11PM 30.0836 -84.0689 151° Southeast 477 549 40,900  Level Jacksonville Center
04:12PM 29.9675 -83.9906 150° Southeast 477 549 40,900  Level Jacksonville Center
04:13PM 29.8511 -83.9175 151° Southeast 477 549 40,900  Level Jacksonville Center
04:14PM 29.7306 -83.8397 151° Southeast 477 549 40,900  Level Jacksonville Center
04:15PM 29.6142 -83.7644 151° Southeast 477 549 40,900  Level Jacksonville Center
04:16PM 29.4978 -83.6919 152° Southeast 477 549 40,900  Level Jacksonville Center
04:17PM 29.3814 -83.6147 150° Southeast 482 555 40,900  Level Jacksonville Center
04:18PM 29.2650 -83.5400 151° Southeast 482 555 40,900  Level Jacksonville Center
04:19PM 29.1483 -83.4656 151° Southeast 482 555 40,900 -180 Level Jacksonville Center
04:20PM 29.0422 -83.3961 150° Southeast 482 555 40,600 -480 Descending Jacksonville Center
04:21PM 28.9233 -83.3219 151° Southeast 482 555 40,000 -300 Descending Jacksonville Center
04:22PM 28.8047 -83.2528 153° Southeast 477 549 40,000  Level Jacksonville Center
04:23PM 28.6881 -83.1836 153° Southeast 477 549 40,000  Level Jacksonville Center
04:24PM 28.5692 -83.1125 152° Southeast 472 543 40,000 240 Level Jacksonville Center
04:27PM 28.2414 -82.9217 153° Southeast 493 567 40,900 240 Climbing Miami Center
04:28PM 28.1214 -82.8494 152° Southeast 488 562 40,900  Level Miami Center
04:29PM 28.0136 -82.7825 151° Southeast 482 555 40,900  Level Miami Center
04:30PM 27.8789 -82.7144 156° South 487 560 40,900  Level Miami Center
04:31PM 27.7678 -82.6758 163° South 478 550 41,000  Climbing Miami Center
04:32PM 27.6264 -82.6125 158° South 478 550 41,000  Level Miami Center
04:33PM 27.5067 -82.5761 165° South 439 505 41,000  Level Miami Center
04:34PM 27.3853 -82.5328 162° South 459 528 41,000  Level Miami Center
04:35PM 27.2619 -82.4869 162° South 464 534 41,000 -60 Level Miami Center
04:36PM 27.1406 -82.4389 161° South 464 534 40,900 -60 Descending Miami Center
04:37PM 27.0192 -82.3958 162° South 459 528 40,900 -360 Level Miami Center
04:38PM 26.9061 -82.3533 161° South 465 535 40,200 -1,080 Descending Miami Center
04:39PM 26.7844 -82.3128 163° South 465 535 38,800 -1,620 Descending Miami Center
04:40PM 26.6589 -82.2628 160° South 470 541 37,000 -1,980 Descending Miami Center
04:41PM 26.5364 -82.1875 151° Southeast 482 555 34,900 -2,340 Descending Miami Center
04:42PM 26.4361 -82.0808 136° Southeast 490 564 32,400 -2,520 Descending Miami Center
04:43PM 26.3356 -81.9700 135° Southeast 501 577 29,900 -2,820 Descending Miami Center
04:44PM 26.2289 -81.8567 136° Southeast 495 570 26,800 -3,060 Descending Miami Center
04:45PM 26.1450 -81.7442 130° Southeast 476 548 23,800 -3,000 Descending Miami Center
04:46PM 26.0992 -81.6083 111° Southeast 464 534 20,800 -3,000 Descending Miami Center
04:47PM 26.0575 -81.4794 110° East 451 519 17,800 -2,760 Descending Miami Center
04:48PM 26.0175 -81.3578 110° East 435 501 15,300 -2,400 Descending Miami Center
04:49PM 25.9814 -81.2408 109° East 410 472 13,000 -2,340 Descending Miami Center
04:50PM 25.9469 -81.1311 109° East 391 450 10,700 -2,100 Descending Miami Center
04:50PM 25.9272 -81.0911 119° Southeast 382 440 10,200 -720 Descending Miami Center
04:51PM 25.9103 -81.0258 106° East 378 435 10,000 -240 Descending Miami Center
04:52PM 25.8878 -80.9328 105° East 310 357 9,900 -240 Descending Miami Center
04:52PM 25.8922 -80.9306 24° Northeast 344 396 9,800 -1,800 Descending Miami Center
04:53PM 25.8925 -80.8453 90° East 297 342 8,300 -1,740 Descending Miami Center
04:53PM 25.8967 -80.8361 63° Northeast 312 359 8,100 -1,860 Descending Miami Center
04:54PM 25.8992 -80.7461 88° East 312 359 6,300 -1,680 Descending Miami Center
04:54PM 25.8950 -80.7436 152° Southeast 299 344 6,400 -1,620 Climbing Miami Center
04:55PM 25.9014 -80.6583 85° East 300 345 4,700 -1,800 Descending Miami Center
04:55PM 25.8975 -80.6514 122° Southeast 279 321 4,600 -1,740 Descending Miami Center
04:56PM 25.8997 -80.5683 88° East 272 313 2,900 -1,380 Descending Miami Center
04:57PM 25.9033 -80.5014 87° East 267 307 2,000 -1,200 Descending Miami Center
04:57PM 25.9017 -80.4875 98° East 246 283 1,700 -420 Descending Miami Center
04:58PM 25.9033 -80.4231 88° East 184 212 1,600 -60 Descending Miami Center
04:59PM 25.9086 -80.3792 82° East 207 238 1,600 -240 Level Miami Center
04:59PM 25.9044 -80.3675 112° Southeast 165 190 1,400 -840 Descending Miami Center
05:00PM 25.9094 -80.3331 81° East 171 197 800 -780 Descending Miami Center
05:00PM 25.9097 -80.3261 87° East 144 166 700 -3,000 Descending Miami Center
05:02PM 25.9074 -80.2782 90° East  Level Estimated
05:09PM 25.9074 -80.2782 90° East  Level Estimated